QPF
0.00 0.00 0.00 0.00 0.00 0.00 0.00 0.00 0.00 0.00 0.00 0.00 0.00 0.00 0.00 0.00 0.00 0.00 0.00 0.00 0.00 0.00 0.00 0.00 0.00 0.00 0.00 0.00 0.00 0.00 0.00 0.00 0.00 0.00 0.00 0.00 0.00 0.00 0.00 0.00 0.00 0.00 0.00 0.00
0.00 0.00 0.00 0.00 0.00 0.00 0.00 0.00 0.00 0.00 0.00 0.00 0.00 0.00 0.00 0.00 0.00 0.00 0.00 0.00 0.00 0.00 0.00 0.00 0.00 0.00 0.00 0.00 0.00 0.00 0.00 0.00 0.00 0.00 0.00 0.00 0.00 0.00 0.00 0.00 0.00 0.00 0.00 0.00
0.00 0.00 0.00 0.00 0.00 0.00 0.00 0.00 0.00 0.00 0.00 0.00 0.00 0.00 0.00 0.00 0.00 0.00 0.00 0.00 0.00 0.00 0.00 0.00 0.00 0.00 0.00 0.00 0.00 0.00 0.00 0.00 0.00 0.00 0.00 0.00 0.00 0.00 0.00 0.00 0.00 0.00 0.00 0.00
0.00 0.00 0.00 0.00 0.00 0.00 0.00 0.00 0.00 0.00 0.00 0.00 0.00 0.00 0.00 0.00 0.00 0.00 0.00 0.00 0.00 0.00 0.00 0.00 0.00 0.00 0.00 0.00 0.00 0.00 0.00 0.00 0.00 0.00 0.00 0.00 0.00 0.00 0.00 0.00 0.00 0.00 0.00 0.00
0.00 0.00 0.00 0.00 0.00 0.00 0.00 0.00 0.00 0.00 0.00 0.00 0.00 0.00 0.00 0.00 0.00 0.00 0.00 0.00 0.00 0.00 0.00 0.00 0.00 0.00 0.00 0.00 0.00 0.00 0.00 0.00 0.00 0.00 0.00 0.00 0.00 0.00 0.00 0.00 0.00 0.00 0.00 0.00
0.00 0.00 0.00 0.00 0.00 0.00 0.00 0.00 0.00 0.00 0.00 0.00 0.00 0.00 0.00 0.00 0.00 0.00 0.00 0.00 0.00 0.00 0.00 0.00 0.00 0.00 0.00 0.00 0.00 0.00 0.00 0.00 0.00 0.00 0.00 0.00 0.00 0.00 0.00 0.00 0.00 0.00 0.00 0.00
0.00 0.00 0.00 0.00 0.00 0.00 0.00 0.00 0.00 0.00 0.00 0.00 0.00 0.00 0.00 0.00 0.00 0.00 0.00 0.00 0.00 0.00 0.00 0.00 0.00 0.00 0.00 0.00 0.00 0.00 0.00 0.00 0.00 0.00 0.00 0.00 0.00 0.00 0.00 0.00 0.00 0.00 0.00 0.00
0.00 0.00 0.00 0.00 0.00 0.00 0.00 0.00 0.00 0.00 0.00 0.00 0.00 0.00 0.00 0.00 0.00 0.00 0.00 0.00 0.00 0.00 0.00 0.00 0.00 0.00 0.00 0.00 0.00 0.00 0.00 0.00 0.00 0.00 0.00 0.00 0.00 0.00 0.00 0.00 0.00 0.00 0.00 0.00
0.00 0.00 0.00 0.00 0.00 0.00 0.00 0.00 0.00 0.00 0.00 0.00 0.00 0.00 0.00 0.00 0.00 0.00 0.00 0.00 0.00 0.00 0.00 0.00 0.00 0.00 0.00 0.00 0.00 0.00 0.00 0.00 0.00 0.00 0.00 0.00 0.00 0.00 0.00 0.00 0.00 0.00 0.00 0.00
0.00 0.00 0.00 0.00 0.00 0.00 0.00 0.00 0.00 0.00 0.00 0.00 0.00 0.00 0.00 0.00 0.00 0.00 0.00 0.00 0.00 0.00 0.00 0.00 0.00 0.00 0.00 0.00 0.00 0.00 0.00 0.00 0.00 0.00 0.00 0.00 0.00 0.00 0.00 0.00 0.00 0.00 0.00 0.00
0.00 0.00 0.00 0.00 0.00 0.00 0.00 0.00 0.00 0.00 0.00 0.00 0.00 0.00 0.00 0.00 0.00 0.00 0.00 0.00 0.00 0.00 0.00 0.00 0.00 0.00 0.00 0.00 0.00 0.00 0.00 0.00 0.00 0.00 0.00 0.00 0.00 0.00 0.00 0.00 0.00 0.00 0.00 0.00
0.00 0.00 0.00 0.00 0.00 0.00 0.00 0.00 0.00 0.00 0.00 0.00 0.00 0.00 0.00 0.00 0.00 0.00 0.00 0.00 0.00 0.00 0.00 0.00 0.00 0.00 0.00 0.00 0.00 0.00 0.00 0.00 0.00 0.00 0.00 0.00 0.00 0.00 0.00 0.00 0.00 0.00 0.00 0.00
0.00 0.00 0.00 0.00 0.00 0.00 0.00 0.00 0.00 0.00 0.00 0.00 0.00 0.00 0.00 0.00 0.00 0.00 0.00 0.00 0.00 0.00 0.00 0.00 0.00 0.00 0.00 0.00 0.00 0.00 0.00 0.00 0.00 0.00 0.00 0.00 0.00 0.00 0.00 0.00 0.00 0.00 0.00 0.00
0.00 0.00 0.00 0.00 0.00 0.00 0.00 0.00 0.00 0.00 0.00 0.00 0.00 0.00 0.00 0.00 0.00 0.00 0.00 0.00 0.00 0.00 0.00 0.00 0.00 0.00 0.00 0.00 0.00 0.00 0.00 0.00 0.00 0.00 0.00 0.00 0.00 0.00 0.00 0.00 0.00 0.00 0.00 0.00
0.00 0.00 0.00 0.00 0.00 0.00 0.00 0.00 0.00 0.00 0.00 0.00 0.00 0.00 0.00 0.00 0.00 0.00 0.00 0.00 0.00 0.00 0.00 0.00 0.00 0.00 0.00 0.00 0.00 0.00 0.00 0.00 0.00 0.00 0.00 0.00 0.00 0.00 0.00 0.00 0.00 0.00 0.00 0.00
0.00 0.00 0.00 0.00 0.00 0.00 0.00 0.00 0.00 0.00 0.00 0.00 0.00 0.00 0.00 0.00 0.00 0.00 0.00 0.00 0.00 0.00 0.00 0.00 0.00 0.00 0.00 0.00 0.00 0.00 0.00 0.00 0.00 0.00 0.00 0.00 0.00 0.00 0.00 0.00 0.00 0.00 0.00 0.00
0.00 0.00 0.00 0.00 0.00 0.00 0.00 0.00 0.00 0.00 0.00 0.00 0.00 0.00 0.00 0.00 0.00 0.00 0.00 0.00 0.00 0.00 0.00 0.00 0.00 0.00 0.00 0.00 0.00 0.00 0.00 0.00 0.00 0.00 0.00 0.00 0.00 0.00 0.00 0.00 0.00 0.00 0.00 0.00
0.00 0.00 0.00 0.00 0.00 0.00 0.00 0.00 0.00 0.00 0.00 0.00 0.00 0.00 0.00 0.00 0.00 0.00 0.00 0.00 0.00 0.00 0.00 0.00 0.00 0.00 0.00 0.00 0.00 0.00 0.00 0.00 0.00 0.00 0.00 0.00 0.00 0.00 0.00 0.00 0.00 0.00 0.00 0.00
0.00 0.00 0.00 0.00 0.00 0.00 0.00 0.00 0.00 0.00 0.00 0.00 0.00 0.00 0.00 0.00 0.00 0.00 0.00 0.00 0.00 0.00 0.00 0.00 0.00 0.00 0.00 0.00 0.00 0.00 0.00 0.00 0.00 0.00 0.00 0.00 0.00 0.00 0.00 0.00 0.00 0.00 0.00 0.00
0.00 0.00 0.00 0.00 0.00 0.00 0.00 0.00 0.00 0.00 0.00 0.00 0.00 0.00 0.00 0.00 0.00 0.00 0.00 0.00 0.00 0.00 0.00 0.00 0.00 0.00 0.00 0.00 0.00 0.00 0.00 0.00 0.00 0.00 0.00 0.00 0.00 0.00 0.00 0.00 0.00 0.00 0.00 0.00
0.00 0.00 0.00 0.00 0.00 0.00 0.00 0.00 0.00 0.00 0.00 0.00 0.00 0.00 0.00 0.00 0.00 0.00 0.00 0.00 0.00 0.00 0.00 0.00 0.00 0.00 0.00 0.00 0.00 0.00 0.00 0.00 0.00 0.00 0.00 0.00 0.00 0.00 0.00 0.00 0.00 0.00 0.00 0.00
0.00 0.00 0.00 0.00 0.00 0.00 0.00 0.00 0.00 0.00 0.00 0.00 0.00 0.00 0.00 0.00 0.00 0.00 0.00 0.00 0.00 0.00 0.00 0.00 0.00 0.00 0.00 0.00 0.00 0.00 0.00 0.00 0.00 0.00 0.00 0.00 0.00 0.00 0.00 0.00 0.00 0.00 0.00 0.00
0.00 0.00 0.00 0.00 0.00 0.00 0.00 0.00 0.00 0.00 0.00 0.00 0.00 0.00 0.00 0.00 0.00 0.00 0.00 0.00 0.00 0.00 0.00 0.00 0.00 0.00 0.00 0.00 0.00 0.00 0.00 0.00 0.00 0.00 0.00 0.00 0.00 0.00 0.00 0.00 0.00 0.00 0.00 0.00
0.00 0.00 0.00 0.00 0.00 0.00 0.00 0.00 0.00 0.00 0.00 0.00 0.00 0.00 0.00 0.00 0.00 0.00 0.00 0.00 0.00 0.00 0.00 0.00 0.00 0.00 0.00 0.00 0.00 0.00 0.00 0.00 0.00 0.00 0.00 0.00 0.00 0.00 0.00 0.00 0.00 0.00 0.00 0.00
0.00 0.00 0.00 0.00 0.00 0.00 0.00 0.00 0.00 0.00 0.00 0.00 0.00 0.00 0.00 0.00 0.00 0.00 0.00 0.00 0.00 0.00 0.00 0.00 0.00 0.00 0.00 0.00 0.00 0.00 0.00 0.00 0.00 0.00 0.00 0.00 0.00 0.00 0.00 0.00 0.00 0.00 0.00 0.00
0.00 0.00 0.00 0.00 0.00 0.00 0.00 0.00 0.00 0.00 0.00 0.00 0.00 0.00 0.00 0.00 0.00 0.00 0.00 0.00 0.00 0.00 0.00 0.00 0.00 0.00 0.00 0.00 0.00 0.00 0.00 0.00 0.00 0.00 0.00 0.00 0.00 0.00 0.00 0.00 0.00 0.00 0.00 0.00
MSLP
1019.90 1020.50 1020.92 1021.15 1021.21 1021.14 1020.99 1020.83 1020.69 1020.64 1020.66 1020.78 1020.98 1021.22 1021.49 1021.76 1022.01 1022.22 1022.39 1022.52 1022.60 1022.65 1022.66 1022.64 1022.60 1022.54 1022.45 1022.35 1022.26 1022.18 1022.12 1022.11 1022.15 1022.23 1022.36 1022.50 1022.65 1022.77 1022.84 1022.86 1022.81 1022.71 1022.58 1022.44
1020.10 1020.58 1020.89 1021.04 1021.07 1021.02 1020.95 1020.89 1020.87 1020.91 1020.99 1021.11 1021.25 1021.39 1021.52 1021.64 1021.77 1021.90 1022.06 1022.23 1022.42 1022.61 1022.77 1022.90 1022.97 1022.97 1022.92 1022.82 1022.71 1022.60 1022.54 1022.54 1022.60 1022.73 1022.89 1023.07 1023.23 1023.34 1023.37 1023.33 1023.22 1023.05 1022.87 1022.70
1020.08 1020.42 1020.62 1020.71 1020.75 1020.76 1020.80 1020.88 1021.00 1021.14 1021.27 1021.37 1021.42 1021.40 1021.36 1021.29 1021.26 1021.30 1021.42 1021.63 1021.92 1022.25 1022.59 1022.88 1023.08 1023.19 1023.21 1023.15 1023.05 1022.96 1022.92 1022.94 1023.05 1023.22 1023.43 1023.64 1023.81 1023.91 1023.90 1023.80 1023.63 1023.41 1023.18 1022.97
1019.92 1020.10 1020.20 1020.26 1020.32 1020.43 1020.61 1020.85 1021.11 1021.35 1021.52 1021.57 1021.50 1021.31 1021.05 1020.78 1020.57 1020.48 1020.55 1020.79 1021.17 1021.64 1022.15 1022.61 1022.98 1023.22 1023.33 1023.34 1023.28 1023.23 1023.21 1023.28 1023.43 1023.65 1023.90 1024.13 1024.31 1024.39 1024.36 1024.21 1023.98 1023.71 1023.44 1023.19
1019.69 1019.73 1019.74 1019.77 1019.89 1020.11 1020.44 1020.84 1021.24 1021.57 1021.75 1021.74 1021.54 1021.16 1020.67 1020.18 1019.79 1019.57 1019.58 1019.83 1020.30 1020.91 1021.58 1022.21 1022.74 1023.11 1023.33 1023.41 1023.42 1023.40 1023.42 1023.52 1023.70 1023.95 1024.23 1024.48 1024.67 1024.73 1024.68 1024.50 1024.23 1023.92 1023.61 1023.34
1019.48 1019.39 1019.33 1019.36 1019.53 1019.87 1020.34 1020.88 1021.40 1021.80 1021.98 1021.90 1021.56 1020.99 1020.30 1019.60 1019.04 1018.70 1018.65 1018.92 1019.45 1020.18 1020.99 1021.78 1022.45 1022.94 1023.25 1023.41 1023.46 1023.48 1023.52 1023.64 1023.84 1024.10 1024.39 1024.65 1024.84 1024.90 1024.83 1024.64 1024.35 1024.02 1023.69 1023.39
1019.32 1019.13 1019.01 1019.05 1019.28 1019.72 1020.32 1020.98 1021.59 1022.03 1022.20 1022.04 1021.57 1020.84 1019.97 1019.11 1018.40 1017.97 1017.88 1018.16 1018.75 1019.57 1020.50 1021.40 1022.18 1022.77 1023.16 1023.37 1023.45 1023.49 1023.54 1023.65 1023.84 1024.10 1024.39 1024.65 1024.83 1024.89 1024.82 1024.63 1024.34 1024.01 1023.67 1023.36
1019.19 1018.93 1018.79 1018.84 1019.14 1019.66 1020.34 1021.08 1021.74 1022.20 1022.33 1022.11 1021.53 1020.68 1019.69 1018.71 1017.92 1017.43 1017.32 1017.62 1018.26 1019.14 1020.15 1021.13 1021.98 1022.64 1023.07 1023.30 1023.40 1023.44 1023.47 1023.57 1023.74 1023.98 1024.24 1024.49 1024.66 1024.73 1024.67 1024.49 1024.22 1023.90 1023.57 1023.26
1019.03 1018.74 1018.60 1018.69 1019.03 1019.60 1020.34 1021.11 1021.78 1022.22 1022.32 1022.03 1021.39 1020.47 1019.41 1018.39 1017.56 1017.06 1016.97 1017.28 1017.96 1018.88 1019.93 1020.95 1021.84 1022.52 1022.97 1023.22 1023.31 1023.33 1023.36 1023.42 1023.57 1023.77 1024.01 1024.23 1024.40 1024.46 1024.41 1024.25 1024.01 1023.72 1023.40 1023.09
1018.76 1018.50 1018.39 1018.52 1018.89 1019.48 1020.22 1020.98 1021.62 1022.01 1022.06 1021.73 1021.06 1020.12 1019.06 1018.05 1017.26 1016.80 1016.74 1017.09 1017.79 1018.74 1019.79 1020.82 1021.71 1022.39 1022.84 1023.09 1023.18 1023.20 1023.20 1023.25 1023.36 1023.53 1023.74 1023.93 1024.08 1024.13 1024.09 1023.95 1023.73 1023.46 1023.16 1022.86
1018.36 1018.16 1018.11 1018.27 1018.66 1019.24 1019.94 1020.64 1021.20 1021.52 1021.50 1021.14 1020.46 1019.55 1018.55 1017.62 1016.91 1016.53 1016.54 1016.94 1017.66 1018.60 1019.65 1020.66 1021.53 1022.20 1022.65 1022.90 1023.00 1023.02 1023.03 1023.06 1023.15 1023.30 1023.46 1023.62 1023.74 1023.78 1023.72 1023.59 1023.38 1023.13 1022.84 1022.54
1017.85 1017.73 1017.74 1017.94 1018.32 1018.86 1019.47 1020.06 1020.51 1020.72 1020.64 1020.24 1019.57 1018.73 1017.83 1017.03 1016.44 1016.18 1016.28 1016.72 1017.47 1018.40 1019.42 1020.40 1021.24 1021.90 1022.36 1022.63 1022.76 1022.81 1022.84 1022.89 1022.97 1023.08 1023.21 1023.33 1023.40 1023.40 1023.32 1023.17 1022.96 1022.70 1022.42 1022.11
1017.31 1017.28 1017.36 1017.58 1017.93 1018.38 1018.87 1019.31 1019.60 1019.68 1019.51 1019.08 1018.44 1017.68 1016.91 1016.26 1015.83 1015.70 1015.90 1016.40 1017.17 1018.09 1019.08 1020.02 1020.84 1021.50 1021.97 1022.28 1022.46 1022.57 1022.64 1022.71 1022.80 1022.89 1022.98 1023.04 1023.05 1022.99 1022.87 1022.68 1022.44 1022.17 1021.88 1021.57
1016.85 1016.92 1017.05 1017.27 1017.56 1017.89 1018.21 1018.46 1018.57 1018.50 1018.22 1017.75 1017.15 1016.48 1015.86 1015.37 1015.10 1015.11 1015.41 1015.98 1016.76 1017.68 1018.63 1019.54 1020.34 1021.00 1021.50 1021.87 1022.12 1022.30 1022.43 1022.54 1022.63 1022.70 1022.75 1022.74 1022.67 1022.54 1022.34 1022.10 1021.83 1021.53 1021.22 1020.91
1016.59 1016.73 1016.89 1017.08 1017.28 1017.47 1017.60 1017.63 1017.54 1017.29 1016.90 1016.39 1015.82 1015.25 1014.76 1014.44 1014.34 1014.49 1014.89 1015.52 1016.32 1017.21 1018.13 1019.01 1019.80 1020.46 1021.00 1021.42 1021.75 1022.00 1022.19 1022.33 1022.43 1022.48 1022.47 1022.38 1022.23 1022.01 1021.75 1021.44 1021.12 1020.80 1020.48 1020.15
1016.59 1016.78 1016.94 1017.07 1017.15 1017.16 1017.09 1016.90 1016.60 1016.19 1015.69 1015.14 1014.60 1014.12 1013.77 1013.60 1013.66 1013.94 1014.44 1015.11 1015.92 1016.79 1017.68 1018.52 1019.28 1019.95 1020.52 1020.98 1021.36 1021.67 1021.91 1022.07 1022.16 1022.18 1022.11 1021.95 1021.71 1021.41 1021.06 1020.70 1020.34 1019.99 1019.67 1019.34
1016.83 1017.04 1017.17 1017.22 1017.16 1017.00 1016.71 1016.32 1015.82 1015.26 1014.67 1014.09 1013.59 1013.20 1012.99 1012.97 1013.16 1013.56 1014.13 1014.84 1015.65 1016.49 1017.33 1018.13 1018.86 1019.51 1020.08 1020.57 1020.98 1021.32 1021.57 1021.74 1021.81 1021.78 1021.64 1021.40 1021.08 1020.71 1020.30 1019.90 1019.51 1019.16 1018.83 1018.53
1017.21 1017.40 1017.48 1017.42 1017.23 1016.90 1016.43 1015.86 1015.22 1014.55 1013.90 1013.32 1012.87 1012.59 1012.49 1012.61 1012.93 1013.42 1014.05 1014.79 1015.57 1016.38 1017.16 1017.89 1018.57 1019.18 1019.72 1020.20 1020.60 1020.93 1021.17 1021.32 1021.34 1021.25 1021.05 1020.74 1020.36 1019.93 1019.49 1019.06 1018.67 1018.32 1018.01 1017.73
1017.55 1017.69 1017.69 1017.54 1017.22 1016.76 1016.16 1015.47 1014.73 1014.01 1013.36 1012.82 1012.45 1012.28 1012.31 1012.54 1012.96 1013.53 1014.21 1014.94 1015.70 1016.44 1017.15 1017.81 1018.41 1018.95 1019.44 1019.86 1020.23 1020.51 1020.71 1020.80 1020.77 1020.61 1020.35 1019.99 1019.56 1019.09 1018.63 1018.20 1017.82 1017.49 1017.21 1016.96
1017.66 1017.73 1017.65 1017.41 1017.00 1016.45 1015.78 1015.05 1014.29 1013.59 1012.99 1012.54 1012.28 1012.22 1012.38 1012.72 1013.23 1013.85 1014.55 1015.27 1015.98 1016.65 1017.28 1017.84 1018.35 1018.80 1019.20 1019.55 1019.84 1020.05 1020.18 1020.20 1020.10 1019.89 1019.57 1019.16 1018.70 1018.22 1017.76 1017.34 1016.99 1016.69 1016.44 1016.20
1017.39 1017.39 1017.24 1016.93 1016.47 1015.89 1015.23 1014.52 1013.83 1013.21 1012.72 1012.40 1012.28 1012.35 1012.62 1013.07 1013.64 1014.30 1014.99 1015.68 1016.33 1016.93 1017.46 1017.92 1018.33 1018.68 1018.98 1019.24 1019.44 1019.56 1019.60 1019.55 1019.38 1019.10 1018.74 1018.30 1017.83 1017.35 1016.89 1016.50 1016.16 1015.88 1015.65 1015.43
1016.70 1016.61 1016.40 1016.06 1015.60 1015.06 1014.46 1013.86 1013.30 1012.83 1012.50 1012.34 1012.37 1012.58 1012.96 1013.48 1014.10 1014.77 1015.45 1016.09 1016.68 1017.19 1017.63 1018.00 1018.30 1018.55 1018.75 1018.91 1019.01 1019.05 1019.00 1018.87 1018.64 1018.31 1017.91 1017.45 1016.96 1016.48 1016.04 1015.65 1015.33 1015.07 1014.84 1014.62
1015.63 1015.46 1015.20 1014.86 1014.45 1013.99 1013.52 1013.08 1012.70 1012.43 1012.29 1012.31 1012.49 1012.83 1013.31 1013.89 1014.53 1015.19 1015.83 1016.42 1016.94 1017.38 1017.73 1018.01 1018.22 1018.38 1018.49 1018.55 1018.57 1018.52 1018.40 1018.19 1017.90 1017.53 1017.10 1016.62 1016.13 1015.64 1015.20 1014.82 1014.49 1014.22 1013.98 1013.74
1014.33 1014.09 1013.81 1013.49 1013.16 1012.83 1012.52 1012.27 1012.11 1012.04 1012.10 1012.30 1012.62 1013.07 1013.62 1014.23 1014.87 1015.50 1016.10 1016.63 1017.08 1017.44 1017.72 1017.92 1018.06 1018.14 1018.17 1018.16 1018.10 1017.98 1017.79 1017.53 1017.20 1016.79 1016.33 1015.83 1015.32 1014.83 1014.38 1013.98 1013.63 1013.32 1013.05 1012.78
1012.99 1012.69 1012.40 1012.13 1011.90 1011.71 1011.59 1011.55 1011.59 1011.73 1011.98 1012.32 1012.77 1013.29 1013.87 1014.49 1015.11 1015.69 1016.23 1016.70 1017.08 1017.38 1017.59 1017.73 1017.80 1017.83 1017.80 1017.72 1017.60 1017.43 1017.19 1016.88 1016.51 1016.07 1015.59 1015.07 1014.55 1014.04 1013.56 1013.12 1012.73 1012.38 1012.07 1011.76
1011.82 1011.48 1011.20 1010.99 1010.86 1010.82 1010.88 1011.02 1011.25 1011.57 1011.96 1012.42 1012.94 1013.51 1014.09 1014.69 1015.26 1015.79 1016.26 1016.65 1016.97 1017.20 1017.36 1017.44 1017.46 1017.43 1017.35 1017.23 1017.05 1016.83 1016.55 1016.20 1015.80 1015.35 1014.84 1014.31 1013.76 1013.23 1012.71 1012.24 1011.80 1011.40 1011.04 1010.70
Thickness
5677 5665 5659 5664 5667 5667 5668 5666 5664 5670 5682 5679 5673 5675 5680 5682 5677 5670 5666 5665 5664 5664 5663 5662 5659 5657 5655 5653 5650 5647 5644 5640 5636 5631 5626 5622 5618 5615 5612 5610 5607 5605 5602 5599
5658 5656 5667 5671 5671 5668 5666 5662 5662 5668 5678 5674 5669 5672 5679 5681 5678 5676 5671 5665 5662 5659 5657 5655 5653 5649 5647 5644 5642 5639 5636 5633 5630 5625 5620 5615 5611 5608 5605 5602 5600 5597 5594 5592
5652 5663 5673 5668 5665 5663 5662 5659 5660 5661 5666 5668 5665 5665 5674 5679 5679 5675 5671 5668 5663 5660 5654 5650 5646 5643 5639 5637 5634 5633 5629 5626 5622 5618 5613 5608 5603 5599 5596 5593 5590 5588 5586 5583
5651 5663 5666 5663 5661 5660 5651 5663 5661 5659 5651 5643 5652 5640 5664 5671 5671 5669 5664 5660 5658 5656 5651 5646 5642 5637 5633 5630 5628 5625 5622 5618 5614 5611 5606 5600 5594 5590 5587 5583 5581 5579 5577 5574
5650 5661 5660 5656 5660 5659 5656 5662 5659 5655 5647 5638 5639 5636 5657 5664 5663 5665 5662 5658 5655 5653 5649 5644 5638 5634 5629 5624 5620 5617 5614 5610 5606 5602 5597 5592 5586 5582 5578 5575 5572 5570 5567 5564
5652 5662 5663 5661 5663 5662 5658 5651 5642 5631 5627 5623 5633 5628 5646 5655 5666 5668 5663 5657 5653 5649 5644 5639 5633 5628 5623 5617 5613 5609 5606 5602 5598 5593 5589 5583 5578 5573 5569 5566 5563 5560 5557 5555
5643 5652 5660 5661 5652 5652 5648 5630 5616 5619 5610 5618 5635 5631 5650 5671 5673 5673 5669 5660 5651 5645 5640 5633 5627 5622 5617 5611 5606 5602 5598 5593 5589 5585 5580 5575 5570 5565 5561 5557 5553 5550 5546 5544
5626 5632 5648 5653 5649 5639 5635 5629 5613 5610 5608 5618 5634 5631 5657 5671 5672 5672 5668 5659 5648 5640 5636 5631 5625 5619 5612 5606 5600 5595 5590 5586 5581 5576 5571 5566 5562 5556 5552 5548 5543 5539 5536 5533
5623 5629 5646 5649 5651 5643 5629 5624 5626 5613 5613 5610 5622 5638 5656 5667 5665 5662 5657 5649 5643 5637 5632 5626 5620 5614 5607 5600 5595 5589 5583 5578 5572 5567 5562 5557 5552 5547 5543 5538 5534 5530 5526 5523
5631 5628 5637 5642 5644 5641 5637 5629 5613 5607 5602 5600 5614 5627 5641 5654 5655 5652 5647 5643 5639 5633 5626 5621 5615 5608 5602 5595 5588 5582 5576 5570 5564 5559 5553 5548 5543 5538 5533 5528 5524 5520 5516 5512
5633 5623 5623 5628 5627 5626 5625 5624 5618 5606 5601 5596 5600 5624 5650 5652 5651 5647 5644 5640 5636 5630 5624 5617 5610 5603 5595 5588 5581 5574 5568 5562 5556 5550 5544 5539 5533 5528 5523 5518 5514 5510 5506 5501
5627 5614 5609 5618 5628 5629 5624 5623 5614 5604 5603 5597 5593 5620 5654 5650 5648 5644 5639 5635 5631 5626 5619 5611 5603 5594 5586 5579 5573 5566 5560 5554 5547 5541 5535 5529 5523 5518 5513 5508 5504 5499 5494 5490
5624 5610 5602 5606 5614 5620 5620 5620 5617 5611 5603 5592 5591 5619 5644 5642 5641 5638 5634 5629 5624 5618 5610 5601 5593 5586 5579 5572 5565 5558 5551 5545 5538 5532 5525 5519 5513 5508 5503 5498 5493 5488 5483 5478
5627 5610 5606 5605 5611 5615 5615 5619 5615 5607 5597 5594 5602 5620 5634 5634 5631 5630 5627 5622 5615 5610 5603 5594 5585 5578 5571 5564 5557 5549 5542 5536 5529 5522 5515 5509 5503 5498 5493 5488 5482 5477 5471 5466
5620 5608 5609 5612 5618 5615 5615 5618 5614 5608 5608 5604 5615 5619 5633 5629 5626 5625 5620 5614 5607 5600 5594 5587 5578 5569 5561 5553 5546 5540 5533 5526 5520 5512 5506 5500 5494 5488 5483 5477 5471 5466 5459 5454
5610 5605 5606 5609 5613 5610 5609 5614 5613 5612 5612 5609 5612 5621 5633 5627 5621 5616 5610 5606 5601 5594 5587 5579 5570 5561 5552 5544 5537 5530 5523 5517 5510 5502 5496 5490 5484 5478 5472 5466 5460 5454 5448 5442
5599 5598 5593 5589 5600 5601 5597 5615 5615 5612 5614 5613 5611 5623 5625 5618 5614 5610 5605 5599 5594 5587 5579 5570 5562 5553 5545 5536 5529 5521 5514 5506 5498 5491 5485 5479 5473 5467 5461 5455 5448 5441 5435 5429
5594 5590 5581 5577 5585 5576 5609 5621 5619 5613 5615 5614 5615 5617 5615 5611 5606 5602 5597 5591 5584 5578 5569 5560 5551 5542 5534 5526 5518 5510 5502 5495 5487 5480 5474 5468 5462 5456 5449 5442 5436 5429 5423 5416
5592 5587 5572 5565 5569 5579 5602 5613 5612 5606 5608 5614 5610 5607 5602 5598 5594 5587 5586 5581 5575 5567 5558 5549 5540 5531 5522 5514 5507 5499 5491 5483 5475 5469 5463 5457 5450 5444 5437 5430 5424 5417 5411 5404
5580 5580 5568 5559 5564 5569 5601 5611 5610 5605 5599 5611 5605 5598 5590 5587 5579 5578 5574 5568 5560 5553 5544 5535 5527 5519 5510 5503 5495 5487 5479 5471 5464 5459 5453 5446 5439 5432 5425 5418 5412 5405 5397 5391
5569 5566 5560 5557 5558 5573 5599 5601 5599 5587 5595 5603 5598 5590 5581 5578 5575 5568 5559 5553 5546 5539 5531 5524 5515 5506 5498 5490 5482 5474 5466 5459 5454 5448 5441 5434 5427 5419 5413 5406 5399 5391 5385 5378
5570 5560 5555 5550 5552 5570 5595 5589 5587 5591 5593 5591 5587 5581 5573 5566 5558 5552 5545 5538 5531 5524 5518 5510 5501 5492 5485 5477 5470 5462 5455 5450 5444 5437 5430 5423 5415 5407 5401 5393 5386 5377 5369 5362
5572 5578 5572 5571 5580 5588 5586 5588 5588 5584 5581 5579 5574 5569 5560 5551 5544 5538 5531 5524 5518 5511 5504 5496 5488 5479 5471 5464 5457 5449 5445 5439 5432 5424 5417 5410 5403 5395 5387 5378 5371 5364 5354 5346
5570 5573 5568 5567 5576 5580 5578 5577 5577 5574 5571 5567 5562 5555 5547 5540 5532 5524 5516 5509 5503 5496 5489 5482 5474 5466 5459 5452 5445 5439 5433 5427 5419 5412 5405 5398 5391 5384 5376 5366 5357 5348 5340 5331
5573 5566 5564 5565 5571 5570 5571 5568 5566 5562 5557 5553 5547 5542 5535 5528 5520 5512 5503 5496 5489 5482 5475 5467 5460 5453 5446 5440 5434 5427 5421 5414 5406 5399 5393 5386 5378 5370 5363 5355 5345 5336 5328 5316
5563 5565 5563 5569 5571 5565 5566 5563 5557 5551 5545 5540 5534 5527 5521 5514 5507 5499 5490 5483 5475 5468 5461 5453 5447 5440 5434 5428 5422 5416 5409 5401 5394 5387 5381 5373 5365 5357 5349 5342 5337 5330 5318 5312